XNO162 WSSS-WMKP

Flight info

Callsign XNO162
Flight time N/A
Altitude 34000
Route AROSO3A AROSO Y513 KALIL Y504 BILIK Y506 TEPUS GORVU1E
Aircraft A320/M-SDE3FGHIRWY/LB1

Departure

Time 2026-05-01 12:15
Airport Singapore Changi Airport (WSSS)

Arrival

Time N/A
Airport Penang International Airport (WMKP)
Time Latitude Longitude Altitude Speed Heading
2026-05-01 11:00 1.33805 103.98475 31 ft 0 kts 294°
2026-05-01 12:05 1.33804 103.98477 30 ft 2 kts 294°
2026-05-01 12:06 1.33796 103.98501 30 ft 4 kts 271°
2026-05-01 12:06 1.33802 103.98524 30 ft 4 kts 218°
2026-05-01 12:06 1.33808 103.98529 30 ft 0 kts 202°
2026-05-01 12:10 1.33793 103.98522 30 ft 11 kts 203°
2026-05-01 12:10 1.33661 103.98500 30 ft 7 kts 130°
2026-05-01 12:10 1.33614 103.98513 30 ft 8 kts 193°
2026-05-01 12:11 1.33530 103.98479 30 ft 5 kts 202°
2026-05-01 12:11 1.33482 103.98459 30 ft 16 kts 202°
2026-05-01 12:11 1.33370 103.98411 30 ft 18 kts 204°
2026-05-01 12:12 1.33248 103.98360 30 ft 20 kts 202°
2026-05-01 12:12 1.33118 103.98306 30 ft 19 kts 203°
2026-05-01 12:12 1.33025 103.98270 30 ft 14 kts 190°
2026-05-01 12:12 1.32956 103.98342 30 ft 17 kts 114°
2026-05-01 12:13 1.32939 103.98381 30 ft 0 kts 112°
2026-05-01 12:13 1.32932 103.98398 30 ft 6 kts 112°
2026-05-01 12:13 1.32900 103.98485 30 ft 14 kts 93°
2026-05-01 12:13 1.32950 103.98529 30 ft 8 kts 21°
2026-05-01 12:14 1.32977 103.98540 30 ft 1 kts 23°
2026-05-01 12:14 1.33134 103.98606 30 ft 61 kts 22°
2026-05-01 12:14 1.33737 103.98860 31 ft 124 kts 23°
2026-05-01 12:14 1.34688 103.99261 32 ft 171 kts 22°
2026-05-01 12:15 1.35817 103.99741 622 ft 173 kts 22°
2026-05-01 12:15 1.36925 104.00209 1362 ft 172 kts 22°
2026-05-01 12:15 1.38037 104.00678 1977 ft 178 kts 22°
2026-05-01 12:15 1.39248 104.01191 2258 ft 201 kts 22°
2026-05-01 12:16 1.40603 104.01764 2577 ft 225 kts 23°
2026-05-01 12:16 1.42131 104.02411 2941 ft 249 kts 23°
2026-05-01 12:16 1.43790 104.03112 3415 ft 269 kts 23°
2026-05-01 12:16 1.45587 104.03872 3826 ft 290 kts 24°
2026-05-01 12:17 1.47512 104.04591 4511 ft 300 kts 13°
2026-05-01 12:17 1.49614 104.04731 5212 ft 309 kts 354°
2026-05-01 12:17 1.51690 104.04120 5963 ft 315 kts 334°
2026-05-01 12:17 1.53634 104.03074 6749 ft 319 kts 332°
2026-05-01 12:18 1.55596 104.02006 7512 ft 323 kts 332°
2026-05-01 12:18 1.57612 104.00910 8031 ft 335 kts 332°
2026-05-01 12:18 1.59693 103.99783 8525 ft 347 kts 332°
2026-05-01 12:18 1.61847 103.98621 9058 ft 355 kts 332°
2026-05-01 12:19 1.64032 103.97441 9687 ft 359 kts 332°
2026-05-01 12:19 1.66243 103.96249 10339 ft 363 kts 332°
2026-05-01 12:19 1.68473 103.95047 10981 ft 366 kts 332°
2026-05-01 12:19 1.70719 103.93836 11625 ft 369 kts 332°
2026-05-01 12:20 1.72986 103.92615 12265 ft 372 kts 332°
2026-05-01 12:20 1.75152 103.91182 12879 ft 376 kts 321°
2026-05-01 12:20 1.77033 103.89350 13447 ft 381 kts 311°
2026-05-01 12:20 1.78697 103.87231 13790 ft 392 kts 308°
2026-05-01 12:21 1.80370 103.85058 14279 ft 396 kts 308°
2026-05-01 12:21 1.82057 103.82864 14789 ft 400 kts 308°
2026-05-01 12:21 1.83764 103.80647 15323 ft 404 kts 308°
2026-05-01 12:21 1.85486 103.78414 15827 ft 407 kts 308°
2026-05-01 12:22 1.87222 103.76166 16312 ft 410 kts 308°
2026-05-01 12:22 1.88970 103.73906 16772 ft 413 kts 308°
2026-05-01 12:22 1.90733 103.71625 17206 ft 416 kts 308°
2026-05-01 12:22 1.92506 103.69329 17644 ft 419 kts 308°
2026-05-01 12:23 1.94290 103.67011 18098 ft 422 kts 308°
2026-05-01 12:23 1.96082 103.64677 18531 ft 425 kts 308°
2026-05-01 12:23 1.97885 103.62326 18953 ft 428 kts 308°
2026-05-01 12:23 1.99702 103.59963 19361 ft 430 kts 308°
2026-05-01 12:24 2.01536 103.57583 19741 ft 433 kts 308°
2026-05-01 12:24 2.03379 103.55192 20131 ft 436 kts 308°
2026-05-01 12:24 2.05235 103.52782 20509 ft 439 kts 308°
2026-05-01 12:24 2.07101 103.50356 20869 ft 441 kts 308°
2026-05-01 12:25 2.08974 103.47918 21223 ft 444 kts 308°
2026-05-01 12:25 2.12752 103.42992 21911 ft 449 kts 306°
2026-05-01 12:25 2.14381 103.40321 22229 ft 452 kts 297°
2026-05-01 12:26 2.15549 103.37398 22548 ft 455 kts 287°
2026-05-01 12:26 2.17320 103.31295 23162 ft 459 kts 287°
2026-05-01 12:26 2.18223 103.28223 23455 ft 462 kts 287°
2026-05-01 12:27 2.19133 103.25137 23733 ft 464 kts 287°
2026-05-01 12:27 2.20961 103.18923 24274 ft 468 kts 287°
2026-05-01 12:28 2.22796 103.12658 24810 ft 471 kts 287°
2026-05-01 12:28 2.23718 103.09507 25071 ft 473 kts 287°
2026-05-01 12:28 2.25570 103.03184 25591 ft 475 kts 287°
2026-05-01 12:29 2.26499 103.00007 25846 ft 477 kts 287°
2026-05-01 12:29 2.27417 102.96864 26077 ft 478 kts 287°
2026-05-01 12:29 2.29284 102.90466 26542 ft 480 kts 287°
2026-05-01 12:30 2.31157 102.84036 26974 ft 483 kts 287°
2026-05-01 12:30 2.32118 102.80768 27192 ft 485 kts 287°
2026-05-01 12:30 2.33074 102.77531 27407 ft 486 kts 287°
2026-05-01 12:31 2.34031 102.74285 27621 ft 487 kts 287°
2026-05-01 12:31 2.34974 102.71080 27828 ft 488 kts 287°
2026-05-01 12:31 2.35927 102.67825 28123 ft 487 kts 287°
2026-05-01 12:31 2.36875 102.64579 28444 ft 486 kts 287°
2026-05-01 12:32 2.37820 102.61339 28748 ft 485 kts 286°
2026-05-01 12:32 2.39702 102.54876 29370 ft 483 kts 286°
2026-05-01 12:32 2.40643 102.51658 29681 ft 482 kts 287°
2026-05-01 12:33 2.41584 102.48441 29996 ft 481 kts 286°
2026-05-01 12:33 2.42518 102.45234 30313 ft 480 kts 286°
2026-05-01 12:33 2.43146 102.43071 30520 ft 479 kts 286°
2026-05-01 12:33 2.44076 102.39875 30820 ft 478 kts 286°
2026-05-01 12:34 2.45332 102.35659 31212 ft 477 kts 289°
2026-05-01 12:34 2.46169 102.33582 31406 ft 476 kts 296°
2026-05-01 12:34 2.47766 102.30742 31687 ft 475 kts 304°
2026-05-01 12:34 2.49735 102.28039 31971 ft 474 kts 307°
2026-05-01 12:35 2.51858 102.25530 32255 ft 473 kts 317°
2026-05-01 12:35 2.54283 102.23313 32542 ft 472 kts 318°
2026-05-01 12:35 2.56715 102.21112 32845 ft 471 kts 318°
2026-05-01 12:35 2.59144 102.18920 33136 ft 470 kts 318°
2026-05-01 12:36 2.61574 102.16730 33431 ft 469 kts 318°
2026-05-01 12:36 2.63995 102.14548 33722 ft 469 kts 318°
2026-05-01 12:36 2.66385 102.12393 33857 ft 470 kts 318°
2026-05-01 12:36 2.68814 102.10197 33879 ft 471 kts 318°
2026-05-01 12:37 2.73681 102.05791 33882 ft 472 kts 318°
2026-05-01 12:37 2.78553 102.01386 33870 ft 472 kts 318°
2026-05-01 12:38 2.83425 101.96980 33869 ft 473 kts 318°
2026-05-01 12:38 2.88303 101.92563 33869 ft 473 kts 318°
2026-05-01 12:39 2.93186 101.88149 33865 ft 473 kts 318°
2026-05-01 12:39 2.98062 101.83736 33863 ft 473 kts 318°
2026-05-01 12:40 3.02936 101.79317 33863 ft 473 kts 318°
2026-05-01 12:40 3.07819 101.74901 33862 ft 473 kts 318°
2026-05-01 12:41 3.12703 101.70489 33860 ft 473 kts 318°
2026-05-01 12:41 3.17582 101.66072 33859 ft 473 kts 318°
2026-05-01 12:42 3.22461 101.61653 33859 ft 473 kts 318°
2026-05-01 12:42 3.27342 101.57233 33861 ft 473 kts 318°
2026-05-01 12:43 3.32223 101.52812 33860 ft 473 kts 318°
2026-05-01 12:43 3.37109 101.48395 33862 ft 473 kts 318°
2026-05-01 12:44 3.41989 101.43976 33862 ft 473 kts 318°